NOAA 16 DEB, 41071

Orbit data source: Space-Track

NOAA 16 DEB, 41071 is space debris in SSO originally from a launch on Thu, 21 Sep 2000 UTC launched from the Air Force Western Test Range (AFWTR). Debris objects in space refer to the collection of defunct objects orbiting the Earth. Examples of debris include non-operational satellites, rocket bodies, and fragments generated from explosions, collisions, or faulty payload assembly.

Loading next visibility...
NOAA 16 DEB details
Identifier
41071, 2000-055AE
Orbit
SSO
Last TLE update1 day ago
Origin
Flag of USNOAA (US)
ManufacturerUnknown
MissionSpacecraft
Bus & MotorUnknown
MassUnknown
Launch date (UTC)
2000-09-21 (24 years ago)
Launch vehicleUnknown
Launch site
Air Force Western Test Range (AFWTR)
Object type
Payload
Rocket body
Debris
Shape & HBRUnknown
Radar Cross SectionSmall (<0.1 m²)

Expand to show TLE details & history

TLE from 1 day ago
0 NOAA 16 DEB
1 41071U 00055AE  25024.75578431  .00008719  00000-0  37469-2 0  9992
2 41071  98.8131 123.7043 0009062  34.9783 325.1989 14.24882930473334
Epoch: 2025-01-24T18:08Z
Definitive object data (Epoch: 2025-01-24T18:08:19.764Z)
Latitude-0.00007°
Longitude87.30757°
Altitude806.457 km
Speed7.453 km/s
True Right ascension08h 14m 49s
True Declination0° 00' 00"
Sunlit
Object was in full shadow at TLE epoch
Visualization TLE readout
Latitude-7.79222°
Longitude-92.87835°
Altitude819.023 km
Speed7.44 km/s
Apparent Right ascension20h 50m 01s
Apparent Declination-65° 43' 37"
Sunlit
Object is in daylight
Visualization observer readout
Local Sidereal Time19:57:26
Azimuth174.415° S
Elevation-16.135°
Doppler factor1
Orbital elements
Apogee altitude812.554 km
Perigee altitude799.533 km
Semi-major axis7,184.18 km
Eccentricity0.0009062
Inclination98.8131°
RAAN123.7043°
Arg. of periapsis34.9783°
True anomaly325.13958°
Mean anomaly325.1989°
Eccentric anomaly325.16924°
Mean motion3.56433 °/min
BSTAR0.0037469
Orbital period101 mins
Loading maneuver chart data...
Loading historical data...
Loading historical data...
Loading historical data...
Loading historical data...
Loading historical data...
Loading historical data...
Loading historical data...

NOAA 16 DEB Visibility forecast

Observer location: undefined°, undefined

Span
Click to sort rows by Start time (UTC) header in descending order
Start Az.
Max El. time (UTC)
Max El. Az.
Max El.
End time (UTC)
End Az.
8 mins2025-01-25 19:59:38.293Z355.325° N2025-01-25 20:03:38.293Z289.765° WNW34.047°2025-01-25 20:07:38.293Z224.945° SW
7 mins2025-01-26 05:40:38.293Z122.976° SE2025-01-26 05:43:38.293Z73.584° E29.92°2025-01-26 05:47:38.293Z9.319° NNE
7 mins2025-01-26 07:20:38.293Z217.047° SW2025-01-26 07:23:38.293Z263.056° W24.764°2025-01-26 07:27:38.293Z318.826° NNW
|